#timestamp,LO_Frequency,Hit,StdDev 
1510304415.7,286046998.3,N
1510304435.6,286046998.1,N
1510304455.4,286047000.6,N
1510304475.2,286047000.4,N
1510304495.1,286046999.9,N
1510304496.0,286046999.9,N
1510304515.8,286047002.4,N
1510304535.6,286047002.8,N
1510304555.5,286047000.0,N
1510304575.3,286047000.6,N
1510304595.2,286046998.2,N
1510304615.9,286047000.3,N
1510304635.7,286046999.9,N
1510304655.6,286046998.8,N
1510304675.4,286046998.1,N
1510304695.2,286046998.7,N
1510304715.1,286047000.6,N
1510304716.0,286047000.6,N
1510304735.8,286046996.9,N
1510304755.7,286047000.9,N
1510304775.5,286047000.8,N
1510304795.3,286047001.0,N
1510304815.2,286047000.9,N
1510304835.0,286047000.7,N
1510304835.9,286047000.7,N
1510304855.7,286047001.2,N
1510304875.6,286047000.5,N
1510304895.4,286047001.2,N
1510304915.3,286046998.3,N
1510304935.1,286046998.1,N
1510304936.0,286046998.1,N
1510304955.8,286046999.4,N
1510304975.7,286046996.8,N
1510304995.5,286046997.7,N
1510305015.3,286046997.6,N
1510305035.2,286046997.5,N
1510305055.0,286046997.9,N
1510305055.9,286046997.9,N
1510305075.8,286046995.4,Y
1510305095.6,286046993.4,P
1510305115.4,286046996.2,N
1510305135.3,286046993.3,N
1510305155.1,286046996.0,N
1510305175.9,286046996.3,N
1510305195.7,286046996.1,N
1510305215.5,286046995.1,N
1510305235.4,286046996.2,N
1510305255.2,286046994.4,Y
1510305275.0,286046998.5,P
1510305275.9,286046998.5,N
1510305295.8,286046999.5,N
1510305315.6,286046996.5,N
1510305335.5,286046996.6,N
1510305355.3,286047001.2,N
1510305375.1,286047000.1,N
1510305395.9,286047000.6,N
1510305415.7,286046999.3,N
1510305435.6,286046995.4,N
1510305455.4,286046995.1,N
1510305475.2,286046995.2,N
1510305495.1,286046996.6,N
1510305496.0,286046996.6,N
1510305515.8,286046997.7,N
1510305535.6,286046995.5,N
1510305555.5,286046996.4,N
1510305575.3,286046995.7,N
1510305595.2,286046997.9,N
1510305615.9,286046996.2,N
1510305635.7,286046996.2,N
1510305655.6,286046993.6,Y
1510305675.4,286046999.2,P
1510305695.2,286046998.3,N
1510305715.1,286046998.7,N
1510305716.0,286046998.7,N
1510305735.8,286046999.4,N
1510305755.7,286046996.6,Y
1510305775.5,286047000.9,P
1510305795.3,286047000.9,N
1510305815.2,286047000.7,N
1510305835.0,286047002.1,N
1510305835.9,286047002.1,N
1510305855.7,286047001.6,N
1510305875.6,286047001.6,N
1510305895.4,286047002.1,N
1510305915.3,286047000.3,N
1510305935.1,286046998.3,N
1510305936.0,286046998.3,N
1510305955.8,286046998.1,N
1510305975.7,286047000.8,N
1510305995.5,286047001.1,N
1510306015.3,286046998.3,N
1510306035.2,286047001.2,N
1510306055.0,286046999.4,N
1510306055.9,286046999.4,N
1510306075.8,286046999.4,N
1510306095.6,286046998.6,N
1510306115.4,286047000.8,N
1510306135.3,286047011.9,Y
1510306155.1,286047001.0,P
1510306175.8,286046998.7,P
1510306195.7,286046998.5,N
1510306215.5,286046996.9,Y
1510306235.4,286046998.5,P
1510306255.2,286046996.7,P
1510306275.0,286046996.6,N
1510306275.9,286046996.6,N
1510306295.8,286047001.0,N
1510306315.6,286046999.0,N
1510306335.4,286046999.4,N
1510306355.3,286046999.6,N
1510306375.1,286046999.4,N
1510306395.9,286046999.3,N
1510306415.7,286046997.1,N
1510306435.5,286046999.1,N
1510306455.4,286046999.2,N
1510306475.2,286046998.4,N
1510306495.1,286046997.4,N
1510306496.0,286046997.4,N
1510306515.8,286046997.2,N
1510306535.6,286046997.1,N
1510306555.5,286046997.2,N
1510306575.3,286046997.8,N
1510306595.1,286046995.3,Y
1510306615.9,286046996.6,P
1510306635.7,286046998.9,N
1510306655.6,286046998.3,N
1510306675.4,286046998.3,N
1510306695.2,286046999.2,N
1510306715.1,286046998.2,N
1510306716.0,286046998.2,N
1510306735.8,286046999.1,N
1510306755.7,286046999.5,N
1510306775.5,286046999.6,N
1510306795.3,286046998.9,N
1510306815.2,286046999.5,N
1510306835.0,286046998.8,N
1510306835.9,286046998.8,N
1510306855.7,286046999.0,N
1510306875.6,286047000.8,N
1510306895.4,286047001.1,N
1510306915.3,286046998.1,N
1510306935.1,286047000.5,N
1510306955.8,286047000.3,N
1510306975.7,286046999.8,N
1510306995.5,286047002.3,N
1510307015.4,286047001.5,N
1510307035.2,286047004.1,Y
1510307055.0,286047003.5,P
1510307055.9,286047003.5,N
1510307075.8,286047004.4,N
1510307095.6,286047002.8,N
1510307115.4,286047002.1,N
1510307135.3,286047002.6,N
1510307155.1,286046999.8,N
1510307175.9,286047000.6,N
1510307195.7,286047000.1,N
1510307215.5,286047002.4,N
1510307235.4,286046999.9,N
1510307255.2,286047000.2,N
1510307275.1,286046998.1,N
1510307276.0,286046998.1,N
1510307295.8,286047000.2,N
1510307315.6,286047001.9,N
1510307335.5,286047004.3,N
1510307355.3,286047002.1,N
1510307375.1,286047004.3,N
1510307395.9,286047004.4,N
1510307415.7,286047002.4,N
1510307435.6,286047000.2,N
1510307455.4,286047001.8,N
1510307475.2,286047004.4,N
1510307495.1,286047003.1,N
1510307496.0,286047003.1,N
1510307515.8,286047005.5,N
1510307535.6,286047003.2,N
1510307555.5,286047001.4,N
1510307575.3,286047003.0,N
1510307595.2,286047004.3,N
1510307615.9,286047001.4,N
1510307635.7,286047004.3,N
1510307655.6,286047001.6,N
1510307675.4,286047003.2,N
1510307695.3,286047003.0,N
1510307715.1,286047003.6,N
1510307716.0,286047003.6,N
1510307735.8,286047005.3,N
1510307755.7,286047001.6,N
1510307775.5,286047002.0,N
1510307795.4,286047004.3,N
1510307815.2,286047002.2,N
1510307835.0,286047001.9,N
1510307835.9,286047001.9,N
1510307855.8,286047002.3,N
1510307875.6,286047002.3,N
1510307895.5,286047001.4,N
1510307915.3,286047003.3,N
1510307935.1,286047006.0,Y
1510307955.9,286047002.6,P
1510307975.7,286047001.5,P
1510307995.6,286047004.0,P
